Showing default

COSMOS 249, 3504

Orbit data source: Space-Track

COSMOS 249, 3504 is a payload satellite owned by PKO (CIS) in LEO that was launched on Sun, 20 Oct 1968 UTC via a TSIKLON-2A launch vehicle from the Tyuratam Missile And Space Complex (TTMTR). Payload-class satellites include a variety of spacecraft equipped with specific instruments for various scientific and technological missions. These include communications satellites like Starlink; space stations such as the ISS; scientific satellites like the Hubble; Earth observation satellites from companies like Planet Labs, Umbra, and HawkEye 360; GPS; miniature CubeSats for education and research; and military/defense satellites.

Loading next visibility...
Identifier
3504, 1968-091A
Orbit
LEO
Last TLE update
12 hours ago
Origin
Manufacturer
TSKBM/KB1
Mission
Defense Weapon
Bus & Motor
IS, Unknown motor
Mass
1,400 kg wet, ~1,400 kg dry
Launch date (UTC)
1968-10-20 (57 years ago)
Launch vehicle
TSIKLON-2A
Launch site
Tyuratam Missile And Space Complex (TTMTR)
Object type
Payload
Rocket body
Debris
Shape & HBR
Cyl, 2.0 m
Radar Cross Section
5.596 m², Large (>1 m²)

Expand to show TLE details & history

TLE from 12 hours ago
0 COSMOS 249
1  3504U 68091A   25198.95223296 -.00000054  00000-0  20557-4 0  9992
2  3504  62.3551  24.3412 0985254 312.6736  39.5197 12.96927436676757
Epoch: 2025-07-17T22:51Z
TLE epoch observation values (Epoch: 2025-07-17T22:51:12.927Z)
Latitude
-0°
Longitude
105.52667°
Altitude
727.998 km
Speed
7.755 km/s
True Right ascension
01h 37m 21s
True Declination
0° 00' 00"
Sunlit
Object was in daylight at epoch
Visualization orbit readout
Latitude
24.00696°
Longitude
-89.14134°
Altitude
1,975.118 km
Speed
6.588 km/s
Apparent Right ascension
12h 13m 19s
Apparent Declination
-3° 10' 26"
Sunlit
Object is in daylight
Visualization observer readout
Local Sidereal Time
23:33:41
Azimuth
343.726° N
Elevation
-52.177°
Doppler factor
1
Orbital elements
Apogee altitude
2,026.967 km
Perigee altitude
519.28 km
Semi-major axis
7,651.26 km
Eccentricity
0.09853
Inclination
62.3551°
RAAN
24.3412°
Arg. of periapsis
312.6736°
True anomaly
47.42928°
Mean anomaly
39.5197°
Eccentric anomaly
43.39824°
Mean motion
3.24298 °/min
Orbital period
111.01 mins
BSTAR
0.000020557
Loading maneuver chart data...
Loading SW <> Apogee altitude chart data...
|